TimeEDT,TemperatureF,Dew PointF,Humidity,Sea Level PressureIn,VisibilityMPH,Wind Direction,Wind SpeedMPH,Gust SpeedMPH,PrecipitationIn,Events,Conditions,WindDirDegrees,DateUTC
12:05 AM,66.2,64.4,94,29.90,2.5,SW,5.8,-,0.02,Rain,Rain,230,2012-10-03 04:05:00
12:51 AM,66.9,64.0,90,29.86,4.0,East,5.8,-,0.10,,Overcast,90,2012-10-03 04:51:00
1:51 AM,64.9,62.1,90,29.88,1.8,Calm,Calm,-,N/A,,Mostly Cloudy,0,2012-10-03 05:51:00
2:51 AM,64.9,63.0,93,29.90,0.5,Calm,Calm,-,N/A,Fog,Fog,0,2012-10-03 06:51:00
3:01 AM,64.4,62.6,94,29.92,0.2,South,3.5,-,N/A,Fog,Fog,180,2012-10-03 07:01:00
3:51 AM,64.9,63.0,93,29.91,0.2,South,6.9,-,N/A,,Overcast,190,2012-10-03 07:51:00
4:47 AM,64.4,62.6,94,29.95,4.0,SW,6.9,-,N/A,,Mostly Cloudy,220,2012-10-03 08:47:00
4:51 AM,64.9,63.0,93,29.94,5.0,SW,6.9,-,N/A,,Overcast,220,2012-10-03 08:51:00
5:31 AM,64.4,60.8,88,29.97,6.0,WSW,4.6,-,N/A,,Scattered Clouds,240,2012-10-03 09:31:00
5:51 AM,64.0,61.0,90,29.97,6.0,WSW,5.8,-,N/A,,Mostly Cloudy,250,2012-10-03 09:51:00
6:51 AM,64.0,61.0,90,29.99,4.0,WSW,12.7,-,N/A,,Overcast,250,2012-10-03 10:51:00
7:12 AM,62.6,60.8,94,30.02,2.0,West,12.7,-,N/A,,Overcast,260,2012-10-03 11:12:00
7:51 AM,63.0,60.1,90,30.03,2.0,SW,11.5,-,N/A,,Overcast,230,2012-10-03 11:51:00
8:21 AM,62.6,60.8,94,30.04,2.0,WSW,5.8,-,N/A,,Overcast,250,2012-10-03 12:21:00
8:51 AM,64.0,60.1,87,30.04,2.0,South,4.6,-,N/A,,Mostly Cloudy,190,2012-10-03 12:51:00
9:26 AM,64.4,60.8,88,30.06,3.0,SSW,6.9,-,N/A,,Mostly Cloudy,200,2012-10-03 13:26:00
9:51 AM,64.9,60.1,84,30.06,5.0,South,6.9,-,N/A,,Haze,190,2012-10-03 13:51:00
10:51 AM,70.0,60.1,71,30.05,7.0,SSW,10.4,-,N/A,,Mostly Cloudy,210,2012-10-03 14:51:00
11:10 AM,68.0,57.2,68,30.08,10.0,SW,11.5,-,N/A,,Mostly Cloudy,220,2012-10-03 15:10:00
11:51 AM,71.1,57.9,63,30.05,10.0,SW,11.5,18.4,N/A,,Mostly Cloudy,230,2012-10-03 15:51:00
12:51 PM,69.1,55.9,63,30.06,10.0,SW,11.5,-,N/A,,Mostly Cloudy,220,2012-10-03 16:51:00
1:51 PM,71.1,55.0,57,30.05,10.0,SW,18.4,23.0,N/A,,Mostly Cloudy,220,2012-10-03 17:51:00
2:51 PM,72.0,53.1,51,30.05,10.0,SW,15.0,21.9,N/A,,Mostly Cloudy,220,2012-10-03 18:51:00
3:51 PM,70.0,52.0,53,30.06,10.0,WSW,13.8,21.9,N/A,,Mostly Cloudy,250,2012-10-03 19:51:00
4:51 PM,68.0,51.1,55,30.07,10.0,West,16.1,-,N/A,,Mostly Cloudy,260,2012-10-03 20:51:00
5:51 PM,66.0,51.1,59,30.09,8.0,WSW,6.9,-,N/A,,Mostly Cloudy,240,2012-10-03 21:51:00
6:51 PM,64.0,51.1,63,30.10,8.0,WSW,4.6,-,N/A,,Mostly Cloudy,240,2012-10-03 22:51:00
7:51 PM,61.0,51.1,70,30.11,9.0,Calm,Calm,-,N/A,,Mostly Cloudy,0,2012-10-03 23:51:00
8:51 PM,60.1,51.1,72,30.12,9.0,Calm,Calm,-,N/A,,Mostly Cloudy,0,2012-10-04 00:51:00
9:51 PM,61.0,51.1,70,30.14,8.0,Calm,Calm,-,N/A,,Mostly Cloudy,0,2012-10-04 01:51:00
10:51 PM,57.2,51.8,82,30.15,8.0,SSE,5.8,-,N/A,,Mostly Cloudy,150,2012-10-04 02:51:00
11:51 PM,57.9,52.0,81,30.15,8.0,SSE,3.5,-,N/A,,Overcast,160,2012-10-04 03:51:00